GW4109 Weather Reports


Display with metric or nautical units.
time (UTC)temp
F
wind
direction
speed
MPH
gust
MPH
rain 1hr
in
rain 24hr
in
rain mn
in
humidity
%
barometer
mb
20260831031251 94 308 7.0 13.0 0.00 0.00 0.00 23 1011.7
20260831030746 94 326 9.0 12.0 0.00 0.00 0.00 24 1012.0
20260831030244 94 315 6.0 11.0 0.00 0.00 0.00 24 1011.7
20260831025744 94 252 11.0 22.0 0.00 0.00 0.00 23 1011.7
20260831025238 94 296 6.0 14.0 0.00 0.00 0.00 24 1011.8
20260831024735 95 274 10.0 17.0 0.00 0.00 0.00 23 1011.7
20260831024233 95 306 6.0 9.0 0.00 0.00 0.00 25 1012.0
20260831023732 95 301 13.0 17.0 0.00 0.00 0.00 26 1012.0
20260831023231 95 293 11.0 22.0 0.00 0.00 0.00 25 1011.5
20260831022726 95 289 11.0 20.0 0.00 0.00 0.00 25 1011.5
20260831022221 95 292 9.0 20.0 0.00 0.00 0.00 26 1011.7
20260831021720 95 295 10.0 19.0 0.00 0.00 0.00 27 1011.7
20260831021215 95 273 9.0 22.0 0.00 0.00 0.00 27 1011.5
20260831020712 96 261 11.0 17.0 0.00 0.00 0.00 26 1011.3
20260831020211 96 273 9.0 22.0 0.00 0.00 0.00 26 1011.2
20260831015706 96 243 19.0 24.0 0.00 0.00 0.00 25 1011.0
20260831015201 96 265 13.0 23.0 0.00 0.00 0.00 25 1011.1
20260831014656 96 271 11.0 23.0 0.00 0.00 0.00 24 1010.9
20260831014151 97 310 14.0 19.0 0.00 0.00 0.00 23 1011.0
20260831013647 97 281 8.0 19.0 0.00 0.00 0.00 23 1010.5
20260831013147 97 292 8.0 20.0 0.00 0.00 0.00 23 1010.9
20260831012642 98 264 10.0 13.0 0.00 0.00 0.00 23 1010.7
20260831012137 98 274 11.0 19.0 0.00 0.00 0.00 23 1010.8
20260831011636 98 293 6.0 17.0 0.00 0.00 0.00 23 1010.8
20260831011132 99 326 8.0 10.0 0.00 0.00 0.00 23 1011.0
20260831010627 101 261 9.0 14.0 0.00 0.00 0.00 23 1010.6
20260831010122 101 287 6.0 18.0 0.00 0.00 0.00 23 1010.8
20260831005617 101 250 8.0 12.0 0.00 0.00 0.00 22 1010.7
20260831005112 102 258 7.0 11.0 0.00 0.00 0.00 22 1010.8
20260831004608 103 248 6.0 15.0 0.00 0.00 0.00 22 1010.6
20260831004103 103 238 7.0 9.0 0.00 0.00 0.00 22 1010.7
20260831003600 102 262 8.0 19.0 0.00 0.00 0.00 22 1010.7
20260831003055 103 243 15.0 23.0 0.00 0.00 0.00 22 1010.7
20260831002554 103 327 6.0 15.0 0.00 0.00 0.00 22 1010.7
20260831002049 103 290 8.0 18.0 0.00 0.00 0.00 21 1010.8
20260831001544 104 242 17.0 23.0 0.00 0.00 0.00 21 1010.8
20260831001041 104 275 9.0 21.0 0.00 0.00 0.00 21 1010.7
20260831000537 104 248 9.0 14.0 0.00 0.00 0.00 21 1010.6
20260831000036 104 260 7.0 14.0 0.00 0.00 0.00 21 1010.8
20260830235535 104 255 19.0 21.0 0.00 0.00 0.00 21 1010.8
20260830235030 104 249 14.0 22.0 0.00 0.00 0.00 21 1010.7
20260830234525 106 272 9.0 13.0 0.00 0.00 0.00 20 1010.8
20260830234020 105 238 9.0 19.0 0.00 0.00 0.00 21 1010.7
20260830233515 105 260 8.0 17.0 0.00 0.00 0.00 21 1010.9
20260830233012 105 253 16.0 23.0 0.00 0.00 0.00 21 1010.8
20260830232508 105 264 7.0 18.0 0.00 0.00 0.00 21 1010.9
20260830232004 105 247 12.0 19.0 0.00 0.00 0.00 20 1010.8
20260830231459 105 246 15.0 17.0 0.00 0.00 0.00 20 1011.0
20260830230958 106 250 5.0 17.0 0.00 0.00 0.00 20 1010.9
20260830230454 106 261 9.0 15.0 0.00 0.00 0.00 21 1011.0
20260830225952 107 254 10.0 16.0 0.00 0.00 0.00 20 1011.0
20260830225449 106 287 6.0 16.0 0.00 0.00 0.00 20 1011.1
20260830224948 107 238 14.0 16.0 0.00 0.00 0.00 20 1011.0
20260830224447 107 245 8.0 22.0 0.00 0.00 0.00 20 1011.1
20260830223944 107 232 10.0 15.0 0.00 0.00 0.00 19 1011.2
20260830223440 107 233 17.0 20.0 0.00 0.00 0.00 20 1011.2
20260830222939 107 227 11.0 21.0 0.00 0.00 0.00 20 1011.1
20260830222435 108 228 6.0 14.0 0.00 0.00 0.00 20 1011.2
20260830221930 108 245 9.0 19.0 0.00 0.00 0.00 20 1011.4
20260830221426 108 249 13.0 15.0 0.00 0.00 0.00 19 1011.5
20260830220921 107 250 14.0 23.0 0.00 0.00 0.00 20 1011.2
20260830220416 107 254 12.0 17.0 0.00 0.00 0.00 20 1011.5
20260830215913 106 237 14.0 17.0 0.00 0.00 0.00 21 1011.7
20260830215408 107 267 8.0 18.0 0.00 0.00 0.00 20 1011.7
20260830214903 108 246 19.0 21.0 0.00 0.00 0.00 20 1011.7
20260830214358 109 213 6.0 15.0 0.00 0.00 0.00 19 1011.6
20260830213852 108 232 4.0 13.0 0.00 0.00 0.00 19 1011.8
20260830213343 109 227 9.0 12.0 0.00 0.00 0.00 18 1012.0
20260830212838 108 241 6.0 13.0 0.00 0.00 0.00 18 1011.7
20260830212334 108 226 7.0 16.0 0.00 0.00 0.00 18 1012.1
20260830211832 108 261 6.0 14.0 0.00 0.00 0.00 19 1012.2
20260830211327 107 253 7.0 14.0 0.00 0.00 0.00 19 1012.3
20260830210823 109 290 4.0 6.0 0.00 0.00 0.00 19 1012.2
20260830210322 109 107 2.0 5.0 0.00 0.00 0.00 19 1012.3
20260830205820 107 94 4.0 7.0 0.00 0.00 0.00 19 1012.4
20260830205314 106 103 6.0 10.0 0.00 0.00 0.00 19 1012.6
20260830204809 107 190 1.0 9.0 0.00 0.00 0.00 19 1012.4
20260830204308 108 78 4.0 7.0 0.00 0.00 0.00 19 1012.6
20260830203804 108 98 5.0 8.0 0.00 0.00 0.00 19 1012.7
20260830203300 109 39 2.0 4.0 0.00 0.00 0.00 18 1012.8
20260830202759 108 30 3.0 4.0 0.00 0.00 0.00 19 1012.6
20260830202254 108 81 1.0 5.0 0.00 0.00 0.00 19 1012.9
20260830201749 107 86 2.0 6.0 0.00 0.00 0.00 19 1012.8
20260830201243 107 5 2.0 7.0 0.00 0.00 0.00 19 1013.1
20260830200738 106 112 2.0 7.0 0.00 0.00 0.00 19 1012.9
20260830200238 106 70 4.0 8.0 0.00 0.00 0.00 19 1013.1
20260830195733 106 99 9.0 9.0 0.00 0.00 0.00 19 1013.1
20260830195231 107 93 8.0 12.0 0.00 0.00 0.00 18 1013.2
20260830194730 108 122 4.0 8.0 0.00 0.00 0.00 18 1013.0
20260830194225 107 63 3.0 4.0 0.00 0.00 0.00 19 1013.2
20260830193720 107 76 4.0 6.0 0.00 0.00 0.00 19 1013.2
20260830193214 105 298 1.0 6.0 0.00 0.00 0.00 19 1013.2
20260830192710 107 93 5.0 5.0 0.00 0.00 0.00 19 1013.5
20260830192205 107 100 5.0 9.0 0.00 0.00 0.00 18 1013.6
20260830191701 105 123 3.0 6.0 0.00 0.00 0.00 19 1013.4
20260830191155 105 131 4.0 10.0 0.00 0.00 0.00 19 1013.6
20260830190651 105 245 2.0 5.0 0.00 0.00 0.00 19 1013.7
20260830190146 106 128 4.0 7.0 0.00 0.00 0.00 19 1013.8
20260830185644 107 111 6.0 6.0 0.00 0.00 0.00 18 1013.9
20260830185140 106 359 2.0 3.0 0.00 0.00 0.00 19 1014.1
20260830184639 106 21 2.0 6.0 0.00 0.00 0.00 19 1014.1
20260830184133 106 98 2.0 5.0 0.00 0.00 0.00 19 1014.2
20260830183633 106 132 0.0 2.0 0.00 0.00 0.00 20 1014.2
20260830183130 106 355 2.0 4.0 0.00 0.00 0.00 19 1014.3
20260830182630 105 37 0.0 3.0 0.00 0.00 0.00 19 1014.3
20260830182126 104 301 3.0 6.0 0.00 0.00 0.00 20 1014.5
20260830181622 105 273 2.0 4.0 0.00 0.00 0.00 19 1014.3
20260830181121 104 211 2.0 5.0 0.00 0.00 0.00 20 1014.6
20260830180621 102 153 1.0 4.0 0.00 0.00 0.00 20 1014.4
20260830180120 102 60 3.0 3.0 0.00 0.00 0.00 21 1014.4
20260830175619 104 100 4.0 5.0 0.00 0.00 0.00 20 1014.6
20260830175115 103 117 3.0 5.0 0.00 0.00 0.00 20 1014.7
20260830174610 102 87 3.0 6.0 0.00 0.00 0.00 21 1014.9
20260830174106 103 31 3.0 6.0 0.00 0.00 0.00 20 1014.8
20260830173600 103 63 2.0 3.0 0.00 0.00 0.00 21 1014.6
20260830173055 101 42 2.0 5.0 0.00 0.00 0.00 22 1014.7
20260830172552 102 79 2.0 6.0 0.00 0.00 0.00 21 1014.7
20260830172048 101 93 5.0 5.0 0.00 0.00 0.00 22 1014.7
20260830171543 102 60 3.0 6.0 0.00 0.00 0.00 22 1014.8
20260830171038 101 267 0.0 2.0 0.00 0.00 0.00 22 1014.7
20260830170532 101 122 3.0 4.0 0.00 0.00 0.00 22 1014.9
20260830170031 100 174 0.0 2.0 0.00 0.00 0.00 22 1015.0
20260830165526 99 167 0.0 4.0 0.00 0.00 0.00 23 1014.9
20260830165022 98 69 3.0 7.0 0.00 0.00 0.00 24 1014.8
20260830164518 100 15 0.0 4.0 0.00 0.00 0.00 23 1014.9
20260830164014 100 77 2.0 3.0 0.00 0.00 0.00 23 1014.6
20260830163511 99 97 4.0 6.0 0.00 0.00 0.00 23 1014.9
20260830163010 98 89 1.0 5.0 0.00 0.00 0.00 24 1014.7
20260830162507 98 91 3.0 5.0 0.00 0.00 0.00 24 1014.6
20260830162006 98 84 2.0 4.0 0.00 0.00 0.00 24 1014.7
20260830161500 97 66 2.0 6.0 0.00 0.00 0.00 25 1014.7
20260830160955 97 116 2.0 4.0 0.00 0.00 0.00 25 1014.6
20260830160452 98 111 3.0 4.0 0.00 0.00 0.00 25 1014.5
20260830155946 98 155 2.0 4.0 0.00 0.00 0.00 25 1014.6
20260830155443 98 71 0.0 3.0 0.00 0.00 0.00 24 1014.7
20260830154937 97 141 0.0 2.0 0.00 0.00 0.00 25 1014.7
20260830154433 97 48 0.0 3.0 0.00 0.00 0.00 25 1014.6
20260830153925 97 233 0.0 2.0 0.00 0.00 0.00 25 1014.3
20260830153420 95 199 1.0 2.0 0.00 0.00 0.00 26 1014.4
20260830152919 93 296 0.0 2.0 0.00 0.00 0.00 27 1014.4
20260830152414 94 89 0.0 3.0 0.00 0.00 0.00 28 1014.4
20260830151907 95 213 1.0 1.0 0.00 0.00 0.00 27 1014.4
20260830151402 95 123 1.0 2.0 0.00 0.00 0.00 27 1014.5
20260830150857 96 73 1.0 2.0 0.00 0.00 0.00 26 1014.6
20260830150356 95 352 0.0 1.0 0.00 0.00 0.00 29 1014.5
20260830145851 94 7 0.0 2.0 0.00 0.00 0.00 28 1014.6
20260830145345 92 3 2.0 2.0 0.00 0.00 0.00 30 1014.5
20260830144840 93 325 0.0 2.0 0.00 0.00 0.00 30 1014.6
20260830144337 91 357 0.0 2.0 0.00 0.00 0.00 31 1014.5
20260830143832 91 309 1.0 2.0 0.00 0.00 0.00 30 1014.5
20260830143332 90 75 1.0 2.0 0.00 0.00 0.00 31 1014.4
20260830142826 88 353 1.0 3.0 0.00 0.00 0.00 33 1014.6
20260830142321 86 350 2.0 3.0 0.00 0.00 0.00 34 1014.6
20260830141816 86 318 3.0 3.0 0.00 0.00 0.00 35 1014.5
20260830141311 84 97 1.0 2.0 0.00 0.00 0.00 36 1014.5
20260830140807 83 268 0.0 1.0 0.00 0.00 0.00 37 1014.3
20260830140307 83 14 1.0 2.0 0.00 0.00 0.00 38 1014.4
20260830135801 83 9 1.0 2.0 0.00 0.00 0.00 37 1014.4
20260830135257 84 45 1.0 2.0 0.00 0.00 0.00 37 1014.3
20260830134752 84 71 0.0 3.0 0.00 0.00 0.00 35 1014.3
20260830134247 84 229 1.0 2.0 0.00 0.00 0.00 35 1014.1
20260830133743 84 226 0.0 2.0 0.00 0.00 0.00 35 1014.1
20260830133239 83 208 0.0 2.0 0.00 0.00 0.00 36 1014.0
20260830132734 82 157 1.0 2.0 0.00 0.00 0.00 37 1014.0
20260830132230 82 76 0.0 1.0 0.00 0.00 0.00 37 1013.9
20260830131728 81 197 1.0 3.0 0.00 0.00 0.00 37 1014.0
20260830131223 81 220 2.0 4.0 0.00 0.00 0.00 37 1013.9
20260830130724 80 238 1.0 3.0 0.00 0.00 0.00 38 1013.9
20260830130223 82 141 0.0 2.0 0.00 0.00 0.00 36 1013.9
20260830125718 82 89 0.0 1.0 0.00 0.00 0.00 36 1014.0
20260830125213 83 260 2.0 3.0 0.00 0.00 0.00 35 1013.9
20260830124711 84 293 1.0 1.0 0.00 0.00 0.00 35 1013.8
20260830124206 84 205 0.0 2.0 0.00 0.00 0.00 35 1013.8
20260830123657 85 113 0.0 2.0 0.00 0.00 0.00 35 1013.8
20260830123153 84 86 2.0 4.0 0.00 0.00 0.00 34 1013.8
20260830122650 84 258 2.0 2.0 0.00 0.00 0.00 34 1013.9
20260830122145 84 258 1.0 3.0 0.00 0.00 0.00 34 1014.0
20260830121641 86 278 0.0 2.0 0.00 0.00 0.00 34 1013.8
20260830121140 85 175 0.0 3.0 0.00 0.00 0.00 34 1014.0
20260830120635 85 251 3.0 3.0 0.00 0.00 0.00 34 1013.8
20260830120132 84 220 5.0 5.0 0.00 0.00 0.00 34 1013.9
20260830115628 84 245 3.0 4.0 0.00 0.00 0.00 34 1014.0
20260830115123 85 233 2.0 2.0 0.00 0.00 0.00 34 1013.8
20260830114620 85 154 2.0 3.0 0.00 0.00 0.00 34 1013.8
20260830114119 84 234 1.0 2.0 0.00 0.00 0.00 34 1013.9
20260830113615 84 166 0.0 2.0 0.00 0.00 0.00 35 1013.7
20260830113109 85 281 0.0 2.0 0.00 0.00 0.00 34 1013.8
20260830112606 85 65 0.0 2.0 0.00 0.00 0.00 34 1013.5
20260830112102 85 315 0.0 2.0 0.00 0.00 0.00 34 1013.5
20260830111557 85 258 0.0 1.0 0.00 0.00 0.00 34 1013.6
20260830111052 86 255 3.0 3.0 0.00 0.00 0.00 33 1013.5
20260830110547 86 240 3.0 4.0 0.00 0.00 0.00 33 1013.5
20260830110043 86 189 0.0 2.0 0.00 0.00 0.00 34 1013.4
20260830105537 87 129 1.0 3.0 0.00 0.00 0.00 33 1013.6
20260830105033 87 259 0.0 2.0 0.00 0.00 0.00 33 1013.3
20260830104530 88 150 2.0 2.0 0.00 0.00 0.00 32 1013.3
20260830104026 87 254 1.0 2.0 0.00 0.00 0.00 33 1013.4
20260830103521 87 306 2.0 3.0 0.00 0.00 0.00 33 1013.3
20260830103020 88 89 0.0 2.0 0.00 0.00 0.00 32 1013.1
20260830102519 88 288 0.0 2.0 0.00 0.00 0.00 32 1013.3
20260830102015 87 109 2.0 2.0 0.00 0.00 0.00 32 1013.1
20260830101510 87 236 0.0 2.0 0.00 0.00 0.00 32 1013.1
20260830101010 87 129 1.0 2.0 0.00 0.00 0.00 32 1013.3
20260830100509 87 119 0.0 3.0 0.00 0.00 0.00 32 1013.0
20260830100008 86 242 1.0 3.0 0.00 0.00 0.00 33 1013.1
20260830095504 86 246 1.0 2.0 0.00 0.00 0.00 33 1012.8
20260830094959 86 82 1.0 2.0 0.00 0.00 0.00 33 1012.9
20260830094455 87 148 0.0 2.0 0.00 0.00 0.00 33 1012.7
20260830093951 86 150 0.0 2.0 0.00 0.00 0.00 33 1012.7
20260830093446 85 227 1.0 2.0 0.00 0.00 0.00 34 1012.8
20260830092942 85 269 0.0 1.0 0.00 0.00 0.00 34 1012.9
20260830092437 86 79 1.0 2.0 0.00 0.00 0.00 33 1012.9
20260830091934 85 125 0.0 2.0 0.00 0.00 0.00 34 1012.6
20260830091434 86 84 0.0 1.0 0.00 0.00 0.00 33 1012.5
20260830090933 85 294 0.0 2.0 0.00 0.00 0.00 34 1012.7
20260830090429 86 244 1.0 2.0 0.00 0.00 0.00 33 1012.7
20260830085924 85 229 0.0 1.0 0.00 0.00 0.00 34 1012.8
20260830085418 85 243 0.0 2.0 0.00 0.00 0.00 34 1012.7
20260830084914 85 122 1.0 2.0 0.00 0.00 0.00 33 1012.7
20260830084409 85 98 0.0 2.0 0.00 0.00 0.00 34 1012.8
20260830083904 85 268 0.0 2.0 0.00 0.00 0.00 34 1012.6
20260830083400 85 267 1.0 2.0 0.00 0.00 0.00 34 1012.7
20260830082900 85 266 1.0 2.0 0.00 0.00 0.00 34 1012.9
20260830082355 85 304 0.0 1.0 0.00 0.00 0.00 34 1012.7
20260830081850 85 217 0.0 1.0 0.00 0.00 0.00 34 1012.7
20260830081344 85 309 0.0 2.0 0.00 0.00 0.00 34 1012.8
20260830080844 85 259 0.0 2.0 0.00 0.00 0.00 34 1012.8
20260830080341 87 255 0.0 2.0 0.00 0.00 0.00 33 1012.7
20260830075840 87 229 0.0 1.0 0.00 0.00 0.00 33 1013.0
20260830075335 86 111 0.0 1.0 0.00 0.00 0.00 33 1013.2
20260830074830 86 128 0.0 1.0 0.00 0.00 0.00 34 1013.1
20260830074326 86 293 0.0 2.0 0.00 0.00 0.00 33 1013.0
20260830073822 87 215 2.0 2.0 0.00 0.00 0.00 33 1013.0
20260830073317 88 139 1.0 2.0 0.00 0.00 0.00 33 1013.2
20260830072813 87 105 0.0 1.0 0.00 0.00 0.00 33 1013.0
20260830072308 86 55 1.0 2.0 0.00 0.00 0.00 34 1013.0
20260830071802 87 282 1.0 2.0 0.00 0.00 0.00 33 1013.2
20260830071301 88 204 0.0 2.0 0.00 0.00 0.00 32 1013.1
20260830070800 89 186 0.0 2.0 0.00 0.00 0.00 32 1013.1
20260830070255 90 109 0.0 2.0 0.00 0.00 0.00 32 1013.2
20260830065754 90 225 1.0 2.0 0.00 0.00 0.00 32 1013.2
20260830065249 91 85 2.0 3.0 0.00 0.00 0.00 31 1013.3
20260830064748 89 235 3.0 4.0 0.00 0.00 0.00 33 1013.2
20260830064244 89 21 0.0 2.0 0.00 0.00 0.00 33 1013.1
20260830063743 90 146 0.0 2.0 0.00 0.00 0.00 32 1013.0
20260830063237 90 106 2.0 3.0 0.00 0.00 0.00 32 1013.1
20260830062732 91 108 0.0 2.0 0.00 0.00 0.00 32 1013.1
20260830062226 91 89 0.0 2.0 0.00 0.00 0.00 31 1013.2
20260830061720 91 104 0.0 1.0 0.00 0.00 0.00 31 1013.1
20260830061216 90 278 0.0 2.0 0.00 0.00 0.00 31 1013.0
20260830060713 91 284 0.0 1.0 0.00 0.00 0.00 31 1013.2
20260830060209 92 74 1.0 2.0 0.00 0.00 0.00 31 1013.2
20260830055704 92 156 0.0 2.0 0.00 0.00 0.00 30 1013.1
20260830055201 92 78 0.0 2.0 0.00 0.00 0.00 30 1013.2
20260830054655 91 113 1.0 2.0 0.00 0.00 0.00 31 1013.2
20260830054150 92 269 1.0 3.0 0.00 0.00 0.00 31 1013.1
20260830053646 93 55 1.0 3.0 0.00 0.00 0.00 30 1013.2
20260830053145 95 101 1.0 2.0 0.00 0.00 0.00 29 1013.1
20260830052641 94 72 0.0 3.0 0.00 0.00 0.00 29 1013.1
20260830052136 94 83 0.0 2.0 0.00 0.00 0.00 29 1012.9
20260830051630 94 94 0.0 1.0 0.00 0.00 0.00 28 1013.1
20260830051127 94 117 0.0 3.0 0.00 0.00 0.00 29 1013.1
20260830050625 95 74 2.0 3.0 0.00 0.00 0.00 28 1013.1
20260830050121 96 329 0.0 3.0 0.00 0.00 0.00 27 1012.8
20260830045619 96 309 8.0 11.0 0.00 0.00 0.00 27 1013.1
20260830045114 96 325 7.0 8.0 0.00 0.00 0.00 28 1013.0
20260830044613 96 322 7.0 9.0 0.00 0.00 0.00 27 1013.1
20260830044108 96 51 1.0 6.0 0.00 0.00 0.00 27 1012.9
20260830043604 96 309 6.0 6.0 0.00 0.00 0.00 27 1012.8
20260830043103 96 332 2.0 4.0 0.00 0.00 0.00 27 1012.9
20260830042601 96 351 5.0 5.0 0.00 0.00 0.00 27 1012.7
20260830042056 96 338 2.0 4.0 0.00 0.00 0.00 28 1012.7
20260830041555 96 318 2.0 2.0 0.00 0.00 0.00 28 1012.6
20260830041054 96 316 5.0 10.0 0.00 0.00 0.00 27 1012.5
20260830040550 96 35 1.0 4.0 0.00 0.00 0.00 28 1012.3
20260830040046 96 69 1.0 6.0 0.00 0.00 0.00 28 1012.5
20260830035543 97 329 8.0 16.0 0.00 0.00 0.00 27 1012.5
20260830035039 97 326 9.0 15.0 0.00 0.00 0.00 28 1012.2
20260830034535 96 314 9.0 15.0 0.00 0.00 0.00 28 1011.7
20260830034033 96 316 9.0 13.0 0.00 0.00 0.00 29 1012.0
20260830033529 96 310 9.0 19.0 0.00 0.00 0.00 28 1011.8
20260830033024 96 322 11.0 17.0 0.00 0.00 0.00 29 1011.7
20260830032518 97 314 9.0 19.0 0.00 0.00 0.00 28 1011.8
20260830032013 97 311 11.0 22.0 0.00 0.00 0.00 29 1011.8